Weather History for Sitka, AK

Change the Weather History Date:

Sunday, February 10, 2013

  Actual Average Record
Temperature  
Mean Temperature 42 °F -  
Max Temperature 46 °F 40 °F 57 °F (2006)
Min Temperature 36 °F 29 °F 11 °F (1975)
Degree Days  
Heating Degree Days 24    
Moisture  
Dew Point 39 °F    
Average Humidity 93    
Maximum Humidity 100    
Minimum Humidity 76    
Precipitation  
Precipitation 1.02 in - - ()
Sea Level Pressure  
Sea Level Pressure 29.98 in    
Wind  
Wind Speed 16 mph (South)    
Max Wind Speed 26 mph    
Max Gust Speed 46 mph    
Visibility 7 miles    
Events Rain    
Averages and records for this station are not official NWS values.
T = Trace of Precipitation, MM = Missing Value Source: NWS Daily Summary

Daily Weather History Graph

Daily Weather History Graph

Search for Another Location

Airport:

Trip Planner

Search our weather history database for the weather conditions in past years. The results will help you decide how hot, cold, wet, or windy it might be!

Date:

Astronomy

Feb. 10, 2013 Rise Set
Actual Time 7:40 AM AKST 4:51 PM AKST
Civil Twilight 6:59 AM AKST 5:32 PM AKST
Nautical Twilight 6:14 AM AKST 6:17 PM AKST
Astronomical Twilight 5:30 AM AKST 7:02 PM AKST
Moon 7:17 AM AKST (2/10) 6:14 PM AKST (2/10)
Length of Visible Light 10h 33m
Length of Day
9h 11m
New Moon, 0% of the Moon is Illuminated
Feb 10
New Moon
Feb 17
First Quarter
Feb 25
Full
Mar 4
Last Quarter
Mar 11
New

Hourly Weather History & Observations

Time (AKST) Temp. Windchill Dew Point Humidity Pressure Visibility Wind Dir Wind Speed Gust Speed Precip Events Conditions
12:12 AM 46.4 °F 37.7 °F 41.0 °F 81% 29.96 in 5.0 mi SSE 26.5 mph 43.7 mph 0.04 in Rain Light Rain
12:37 AM 46.4 °F 39.2 °F 39.2 °F 76% 29.96 in 6.0 mi SSE 18.4 mph 46.0 mph 0.11 in Rain Rain
12:53 AM 46.0 °F 37.8 °F 39.9 °F 79% 29.97 in 5.0 mi SSE 23.0 mph 35.7 mph 0.14 in Rain Rain
1:37 AM 44.6 °F 36.4 °F 41.0 °F 87% 29.97 in 4.0 mi South 20.7 mph 36.8 mph 0.12 in Rain Rain
1:53 AM 45.0 °F 35.8 °F 41.0 °F 86% 29.97 in 4.0 mi SSE 26.5 mph 38.0 mph 0.16 in Rain Rain
3:12 AM 44.6 °F 37.2 °F 42.8 °F 93% 29.97 in 6.0 mi SSE 17.3 mph 24.2 mph 0.03 in Rain Light Rain
3:30 AM 44.6 °F 37.4 °F 42.8 °F 93% 29.97 in 4.0 mi SSE 16.1 mph 23.0 mph 0.07 in Rain Rain
3:53 AM 44.1 °F 37.1 °F 43.0 °F 96% 29.97 in 5.0 mi South 15.0 mph 21.9 mph 0.11 in Rain Light Rain
4:36 AM 44.6 °F 37.8 °F 42.8 °F 93% 29.96 in 2.5 mi South 15.0 mph 23.0 mph 0.06 in Rain Light Rain
4:45 AM 42.8 °F 35.8 °F 42.8 °F 100% 29.97 in 3.0 mi South 13.8 mph 20.7 mph 0.07 in Rain Light Rain
4:53 AM 44.1 °F 36.5 °F 43.0 °F 96% 29.97 in 4.0 mi South 17.3 mph 23.0 mph 0.07 in Rain Light Rain
5:06 AM 42.8 °F 34.8 °F 42.8 °F 100% 29.97 in 8.0 mi South 17.3 mph - 0.00 in   Overcast
5:26 AM 42.8 °F 35.1 °F 42.8 °F 100% 29.97 in 6.0 mi South 16.1 mph 25.3 mph 0.01 in Rain Light Rain
5:35 AM 42.8 °F 34.8 °F 42.8 °F 100% 29.96 in 7.0 mi South 17.3 mph 24.2 mph 0.01 in Rain Light Rain
5:53 AM 43.0 °F 36.4 °F 43.0 °F 100% 29.96 in 8.0 mi SSW 12.7 mph 21.9 mph 0.01 in   Overcast
6:11 AM 41.0 °F 32.8 °F 39.2 °F 93% 29.97 in 2.0 mi SSW 16.1 mph 24.2 mph 0.10 in Rain Heavy Rain
6:25 AM 41.0 °F 33.9 °F 41.0 °F 100% 29.97 in 6.0 mi SSW 12.7 mph - 0.12 in Rain Light Rain
6:53 AM 42.1 °F 37.1 °F 42.1 °F 100% 29.98 in 7.0 mi South 8.1 mph - 0.12 in   Overcast
7:03 AM 42.8 °F 37.5 °F 41.0 °F 93% 29.98 in 8.0 mi South 9.2 mph - N/A   Overcast
7:12 AM 42.8 °F 37.0 °F 41.0 °F 93% 29.98 in 8.0 mi South 10.4 mph - N/A   Overcast
7:49 AM 41.0 °F 33.1 °F 39.2 °F 93% 29.99 in 9.0 mi SW 15.0 mph - 0.01 in Rain Light Rain
7:53 AM 41.0 °F 34.3 °F 39.0 °F 93% 29.99 in 10.0 mi WSW 11.5 mph - 0.01 in Rain Light Rain
8:17 AM 39.2 °F 32.0 °F 39.2 °F 100% 29.98 in 9.0 mi SSW 11.5 mph - 0.01 in Rain Light Rain
8:53 AM 41.0 °F 35.2 °F 39.0 °F 93% 29.99 in 10.0 mi South 9.2 mph - 0.01 in   Overcast
9:10 AM 39.2 °F 29.6 °F 37.4 °F 93% 29.99 in 5.0 mi SW 19.6 mph 26.5 mph 0.01 in Rain Light Rain
9:28 AM 39.2 °F 32.5 °F 39.2 °F 100% 29.99 in 10.0 mi South 10.4 mph - 0.01 in Rain Light Rain
9:48 AM 41.0 °F 35.8 °F 39.2 °F 93% 29.99 in 10.0 mi South 8.1 mph - 0.01 in   Overcast
9:53 AM 41.0 °F 36.4 °F 39.0 °F 93% 29.99 in 9.0 mi SSE 6.9 mph - 0.01 in Rain Light Rain
10:28 AM 41.0 °F 35.2 °F 39.2 °F 93% 29.99 in 9.0 mi South 9.2 mph 18.4 mph 0.03 in Rain Light Rain
10:53 AM 41.0 °F 32.8 °F 39.0 °F 93% 30.00 in 9.0 mi South 16.1 mph 27.6 mph 0.03 in Rain Light Rain
11:50 AM 41.0 °F 35.8 °F 39.2 °F 93% 30.00 in 8.0 mi SSE 8.1 mph - 0.00 in   Overcast
11:53 AM 41.0 °F 35.8 °F 37.9 °F 89% 30.01 in 8.0 mi SSE 8.1 mph - 0.00 in   Overcast
12:53 PM 42.1 °F 35.7 °F 39.0 °F 89% 29.99 in 6.0 mi South 11.5 mph - N/A   Overcast
1:14 PM 41.0 °F 33.5 °F 37.4 °F 87% 30.00 in 9.0 mi South 13.8 mph 20.7 mph N/A   Overcast
1:53 PM 41.0 °F 34.3 °F 37.0 °F 86% 30.01 in 10.0 mi South 11.5 mph - N/A   Overcast
2:53 PM 42.1 °F 35.7 °F 39.0 °F 89% 30.01 in 7.0 mi SSW 11.5 mph - 0.00 in   Overcast
3:53 PM 41.0 °F 34.7 °F 37.0 °F 86% 30.00 in 8.0 mi SSE 10.4 mph - N/A   Overcast
4:53 PM 39.9 °F 35.8 °F 37.0 °F 89% 30.01 in 8.0 mi WSW 5.8 mph - 0.01 in Rain Light Rain
5:53 PM 37.9 °F 30.9 °F 36.0 °F 93% 29.99 in 10.0 mi SSE 10.4 mph - 0.00 in   Overcast
6:53 PM 37.9 °F 30.5 °F 37.0 °F 97% 30.00 in 10.0 mi SSW 11.5 mph - 0.04 in Rain Light Rain
7:53 PM 37.9 °F 28.9 °F 36.0 °F 93% 30.00 in 7.0 mi South 16.1 mph 24.2 mph 0.06 in Rain Light Rain
8:53 PM 37.9 °F 30.9 °F 36.0 °F 93% 29.96 in 7.0 mi ESE 10.4 mph - 0.01 in Rain Light Rain
9:53 PM 37.9 °F 30.9 °F 37.0 °F 97% 29.96 in 4.0 mi SSE 10.4 mph 19.6 mph 0.08 in Rain Rain
10:00 PM 37.4 °F 30.3 °F 35.6 °F 93% 29.95 in 7.0 mi ESE 10.4 mph - 0.00 in Rain Light Rain
10:16 PM 37.4 °F 28.2 °F 35.6 °F 93% 29.95 in 6.0 mi SSE 16.1 mph 24.2 mph 0.02 in Rain Rain
10:53 PM 37.9 °F 31.5 °F 36.0 °F 93% 29.95 in 8.0 mi SSE 9.2 mph - 0.04 in Rain Light Rain
11:11 PM 37.4 °F 31.4 °F 35.6 °F 93% 29.94 in 6.0 mi SSE 8.1 mph - 0.03 in Rain Light Rain
11:53 PM 36.0 °F 29.6 °F 36.0 °F 100% 29.95 in 4.0 mi SE 8.1 mph 20.7 mph 0.11 in Rain Rain